Dewpoint
50 48 42 33 23 23 20 19 19 16 18 24 46 49 54 54 52 46 62 62 67 70 71 72 72 71 71 71 71 71 71 71 71 71 70 71 71 70 70 70 69 69 69 68 67 66 65 65 65
44 40 37 31 20 18 18 21 19 20 22 50 47 50 50 53 54 60 61 65 68 70 71 71 71 71 71 71 71 72 72 71 71 71 71 70 70 70 69 68 68 69 68 67 67 66 65 64 63
41 41 33 23 20 18 19 20 21 21 23 26 48 51 48 46 50 60 64 66 68 69 70 71 71 71 71 71 71 72 71 71 71 71 70 70 70 69 69 67 68 69 68 67 67 65 64 63 62
37 33 29 20 18 19 19 18 20 24 26 50 51 44 51 55 53 58 65 65 66 68 70 71 71 71 71 71 71 71 71 71 71 71 71 70 70 69 69 68 68 69 68 67 67 65 63 62 61
35 31 25 23 21 21 24 23 24 23 25 43 50 50 51 61 62 61 64 64 65 67 69 70 70 71 71 71 71 71 71 71 71 71 71 70 70 69 69 68 68 68 68 68 66 64 63 62 60
32 29 25 23 24 26 26 24 24 24 41 50 50 54 56 59 59 59 63 64 66 67 68 70 70 71 71 71 71 71 70 70 70 70 70 70 69 68 68 68 68 68 68 67 65 64 63 61 60
33 31 27 26 26 26 25 24 24 23 26 44 54 52 55 49 52 64 64 66 67 67 67 69 70 71 71 71 70 70 70 70 70 70 70 69 69 68 68 68 68 68 67 66 65 63 62 61 60
33 30 28 26 25 25 26 24 24 23 25 52 51 48 47 49 50 64 66 66 67 67 67 67 69 70 70 70 70 70 70 70 70 69 69 69 68 68 68 68 68 68 67 67 65 64 62 61 59
32 29 28 27 26 25 28 25 23 24 28 40 50 50 50 53 54 63 65 66 66 66 67 67 68 68 68 69 69 69 69 69 69 69 69 68 68 67 68 67 68 68 67 67 66 64 63 61 59
31 28 28 29 28 28 28 26 22 22 28 44 47 49 50 49 60 61 63 64 65 65 66 66 67 67 67 68 68 68 69 69 68 68 68 67 67 67 67 67 67 68 67 67 66 65 63 61 59
31 29 29 29 29 29 27 26 25 22 22 40 41 45 46 54 54 60 62 63 64 65 65 66 66 67 66 66 66 66 67 67 67 67 67 66 66 66 66 65 68 68 67 66 66 64 63 61 59
27 29 29 29 29 28 27 26 25 24 24 25 47 46 47 52 56 59 60 62 63 63 64 65 66 66 66 66 66 66 66 66 66 66 66 66 64 64 64 65 67 67 67 65 65 63 62 60 59
28 28 28 28 28 27 26 25 24 24 25 25 37 50 49 51 58 60 60 60 62 63 63 64 65 66 66 66 65 66 65 65 65 65 66 65 64 64 65 65 66 66 66 65 64 63 61 60 58
29 28 28 29 28 27 26 25 25 24 25 24 37 53 55 58 60 61 60 60 61 63 63 64 64 65 66 65 64 65 65 64 64 65 65 65 63 64 65 65 65 65 65 64 64 63 61 60 57
29 27 28 28 28 27 26 25 24 25 25 24 24 29 49 49 49 53 52 61 61 63 63 63 64 65 65 65 64 64 64 64 64 64 65 65 65 64 65 65 64 64 64 64 64 62 61 59 57
29 27 26 28 28 27 26 24 26 26 25 24 24 24 30 42 45 47 50 53 62 62 63 64 64 65 66 65 65 65 65 64 64 64 65 65 66 65 65 65 64 65 64 63 62 62 59 58 55
28 25 26 26 29 28 26 24 25 26 25 24 24 24 40 45 52 60 61 63 63 63 64 64 65 64 65 66 66 66 66 66 66 66 66 66 66 66 65 65 64 64 64 63 59 58 56 53 52
27 26 26 25 25 27 26 25 26 26 25 25 24 26 40 46 54 60 62 64 65 65 65 65 65 65 65 65 65 65 66 66 66 67 67 67 67 66 65 64 64 64 64 63 61 56 53 50 49
29 26 25 27 28 27 27 26 26 27 24 24 24 26 40 46 54 57 60 63 65 66 66 65 65 65 65 64 64 64 64 65 65 66 66 66 66 66 66 65 65 64 64 63 62 59 55 52 50
31 29 27 27 28 27 27 27 27 25 25 24 24 29 43 48 51 53 54 57 61 64 65 65 65 65 64 64 64 63 63 64 64 65 65 66 66 66 66 65 65 64 64 63 62 60 56 53 52
30 29 28 27 27 28 28 27 26 26 23 24 25 30 43 47 48 48 48 48 54 57 58 60 59 61 64 64 62 62 61 62 61 62 62 63 64 64 64 64 64 64 64 63 63 62 61 60 56
30 31 31 29 28 26 28 24 25 26 25 23 24 33 42 44 46 46 44 43 44 43 40 42 47 54 62 63 61 60 59 57 49 54 61 62 62 62 62 63 63 62 62 62 62 62 61 60 58
31 32 31 30 29 28 27 25 25 26 25 24 24 29 40 43 45 44 41 38 38 38 38 39 41 44 48 50 49 47 47 44 46 44 45 44 49 59 62 62 61 61 61 61 60 60 60 59 57
33 31 30 30 29 26 26 25 24 25 25 25 25 26 39 42 43 42 39 37 36 37 37 37 37 39 40 41 41 41 41 41 39 41 42 46 48 50 50 55 57 58 58 58 58 58 58 58 57
32 31 27 26 25 25 26 25 24 27 26 26 26 28 37 40 41 40 38 36 36 34 34 34 34 36 38 38 38 39 40 39 40 41 44 44 45 46 50 52 52 52 51 51 52 53 54 55 55
30 29 27 22 24 25 27 25 26 28 29 29 28 30 37 38 40 39 38 37 35 33 31 32 33 33 33 35 36 38 38 37 38 39 41 41 44 48 50 49 49 48 48 48 47 48 49 51 50
28 27 28 28 29 27 27 28 30 29 29 29 29 34 36 37 38 37 36 36 35 33 30 29 30 32 33 34 35 35 37 37 38 41 43 43 47 49 48 47 46 46 45 45 44 45 45 45 45
27 28 25 27 25 24 25 26 26 28 28 29 29 33 35 36 36 34 34 34 33 30 30 30 30 30 32 33 35 35 37 39 40 42 41 43 48 47 46 45 45 44 44 43 43 42 42 42 42
27 25 24 26 28 25 25 25 28 28 30 32 33 34 34 33 31 32 31 31 31 30 30 30 30 30 33 34 34 34 36 38 41 42 44 46 47 46 45 44 44 43 42 42 41 40 40 39 38
28 26 24 24 24 28 27 26 31 30 31 34 34 34 32 30 29 28 28 28 29 29 29 29 30 30 31 34 37 39 40 42 43 45 46 45 44 44 43 43 42 41 40 39 38 37 37 36 36
Wind_Speed
3 5 2 3 1 4 4 9 15 17 4 3 7 12 15 7 5 4 5 10 27 21 16 11 17 21 19 19 22 22 20 21 20 20 19 19 19 19 19 18 17 15 13 12 11 11 11 10 9
1 3 4 2 2 1 6 8 11 7 5 21 14 7 11 7 0 9 4 12 17 21 17 13 17 20 20 20 20 19 19 20 20 19 19 19 18 18 18 16 16 15 13 12 10 10 9 8 7
2 2 1 3 4 5 4 2 8 3 7 5 7 8 4 2 3 2 15 19 17 16 15 15 17 20 20 21 21 20 19 20 20 20 19 18 18 17 17 16 15 14 12 11 9 9 8 7 5
2 3 2 5 16 12 9 25 18 4 7 11 16 10 2 7 7 10 19 19 18 16 13 18 20 21 21 20 21 21 20 19 19 19 18 17 16 16 15 15 14 13 12 11 10 8 7 5 4
4 3 3 6 14 2 15 18 13 5 7 10 7 4 0 2 9 9 18 19 20 19 15 16 19 20 21 21 21 20 20 19 19 18 17 17 16 15 14 13 12 12 11 10 9 8 6 3 3
3 2 3 12 10 6 14 16 8 6 14 12 13 7 5 17 9 4 12 17 16 20 17 16 18 19 20 19 19 19 20 20 20 19 17 17 16 16 15 13 12 11 12 10 8 7 5 2 1
2 1 6 11 15 17 9 13 9 6 10 5 17 7 6 12 11 5 15 16 16 13 15 14 13 14 17 17 19 19 19 19 18 18 17 17 17 16 15 13 12 11 11 10 8 7 5 2 2
3 0 6 6 9 18 11 9 5 6 1 21 22 11 10 19 7 9 17 17 16 13 13 15 14 15 15 14 16 16 16 17 17 18 17 16 16 15 14 13 12 11 11 9 7 5 4 2 2
4 6 17 13 4 7 28 21 2 2 7 9 11 22 14 19 14 10 18 14 14 12 12 14 16 15 14 13 14 15 15 16 16 15 15 14 11 12 13 13 12 12 11 8 5 5 3 3 4
6 9 14 9 12 19 21 14 14 2 8 5 9 2 18 24 17 21 21 22 20 19 17 18 16 15 16 12 13 14 13 13 12 11 12 11 11 11 12 12 14 13 11 9 7 6 5 5 5
7 21 20 27 22 21 18 21 5 4 2 13 16 18 26 26 21 25 22 27 30 24 20 20 19 17 17 14 14 11 12 13 12 13 13 12 10 9 9 9 9 10 12 9 8 7 7 7 7
13 20 23 27 23 22 20 9 14 5 4 3 18 30 32 24 23 28 26 24 24 25 22 20 21 21 18 15 15 14 15 14 14 15 16 15 13 12 12 11 11 11 9 11 10 10 10 10 10
11 17 19 17 17 15 15 12 9 15 9 4 11 23 31 28 30 29 30 30 24 22 21 23 22 22 20 20 16 15 14 15 15 15 16 15 15 15 14 14 13 12 11 12 13 12 12 11 11
9 12 22 20 20 10 14 11 1 12 13 10 15 23 29 30 32 31 26 24 26 25 24 24 23 22 21 18 18 17 15 15 15 14 16 17 15 14 14 13 13 12 13 12 13 14 13 13 10
4 15 20 24 8 11 6 13 16 15 15 16 17 18 28 24 16 18 15 25 26 30 29 28 26 22 23 21 21 18 18 17 18 18 18 19 17 16 15 15 15 14 14 13 13 14 12 12 11
9 8 10 3 9 11 7 20 24 18 15 22 20 17 15 16 18 13 13 18 29 24 26 25 23 22 21 19 17 15 14 14 14 16 17 18 19 18 17 17 16 15 12 12 12 12 14 16 16
4 21 13 16 7 13 7 10 25 22 17 23 22 17 23 19 17 18 16 15 22 24 23 25 25 25 18 15 15 14 13 10 10 11 13 16 17 18 18 16 16 13 12 11 9 11 12 15 16
22 17 9 14 17 10 23 22 32 26 21 28 25 19 25 24 21 22 22 19 17 20 18 21 19 20 18 16 13 11 10 8 5 5 3 11 13 13 14 13 13 12 10 10 7 10 11 10 16
23 12 17 9 22 5 20 23 28 29 20 27 25 23 25 25 17 20 22 22 21 20 18 19 22 20 20 15 12 9 8 6 5 5 3 3 5 7 7 7 10 11 13 12 10 9 12 15 6
22 25 22 24 32 14 24 26 24 24 22 25 22 21 25 20 20 19 22 20 21 20 19 17 17 17 17 14 6 4 6 4 3 6 6 5 4 4 6 8 9 9 10 11 9 7 5 5 8
28 30 25 25 30 27 18 27 18 18 13 15 18 23 28 33 27 21 22 22 21 21 21 19 15 13 12 11 8 7 8 6 4 3 2 4 6 6 6 6 6 7 8 11 12 9 12 11 5
35 26 26 27 21 22 8 22 20 14 20 17 21 23 25 19 17 21 26 25 24 23 23 23 18 15 13 12 11 11 8 8 4 0 2 1 3 4 4 5 6 7 7 9 10 9 9 6 10
27 19 24 25 27 28 36 21 14 23 26 25 24 20 30 31 31 28 25 25 23 23 23 23 24 21 18 17 16 16 16 10 5 7 8 6 7 5 6 6 6 7 7 8 7 4 4 6 7
21 12 21 27 27 41 22 27 33 30 21 22 26 19 29 27 25 23 22 26 26 22 23 22 24 19 18 18 15 16 15 10 8 6 5 6 7 11 11 9 8 7 7 7 8 9 8 8 7
29 21 15 15 20 37 16 23 31 12 30 30 26 18 29 30 26 29 30 27 24 24 23 20 22 17 15 16 15 13 12 10 9 7 6 5 4 5 9 11 13 11 11 11 9 6 4 4 6
32 31 17 21 29 25 17 27 14 20 27 17 25 20 28 29 25 24 23 24 26 24 22 21 21 18 14 13 12 11 10 8 6 5 4 2 1 4 8 10 10 10 11 11 11 10 10 11 10
29 40 36 12 6 8 17 11 6 17 18 24 21 18 28 29 28 30 26 23 23 22 23 22 20 16 14 13 10 9 7 6 6 6 4 2 3 9 9 9 10 9 9 10 10 10 11 11 10
27 19 25 28 28 32 17 17 15 16 28 24 21 23 29 28 29 27 24 25 21 22 22 19 18 16 12 11 10 8 7 6 5 5 3 3 7 8 8 8 8 8 9 10 11 10 10 12 12
30 34 18 24 19 30 29 26 15 23 14 18 18 27 32 30 30 29 26 23 23 22 22 20 17 14 12 11 8 7 6 6 6 5 4 7 10 8 7 6 6 7 8 7 7 9 10 11 11
47 40 33 22 30 23 21 49 1 11 19 20 22 26 23 27 33 31 28 26 24 24 22 22 18 17 12 9 8 5 3 2 2 5 9 10 10 7 7 7 9 10 9 8 7 6 6 7 8
Wind_Direction
143 186 123 63 301 68 272 268 242 289 309 19 84 98 90 46 81 123 6 138 129 134 138 147 137 131 131 129 128 129 128 124 121 121 119 117 117 116 116 117 117 112 111 108 106 103 98 93 88
358 115 59 94 201 223 266 256 254 219 158 119 82 106 71 87 306 126 116 125 131 133 136 146 142 135 135 134 131 130 131 130 131 129 128 127 126 125 123 122 119 117 117 112 107 100 95 91 92
294 73 184 198 180 184 251 359 338 213 88 99 97 55 75 79 357 111 132 133 131 127 130 146 141 136 139 137 135 135 138 140 140 138 139 137 135 133 132 129 124 122 120 113 105 96 90 78 59
12 42 27 241 250 250 264 296 263 203 85 75 117 79 77 20 339 311 136 134 130 128 129 147 149 145 145 141 142 145 148 149 145 146 145 141 140 136 135 132 131 131 129 123 116 107 100 96 70
25 72 255 255 263 298 297 279 245 183 124 137 134 135 29 324 304 92 142 141 150 135 150 152 147 147 147 149 150 153 152 154 151 150 148 147 145 141 139 139 141 137 134 131 128 125 127 124 88
330 51 267 262 283 290 293 285 234 166 127 131 95 94 305 259 133 72 158 144 144 143 151 150 153 151 151 151 150 155 156 160 158 155 157 152 152 151 149 147 148 147 143 140 139 140 144 122 35
182 335 252 274 289 300 303 277 234 181 149 140 125 101 257 244 134 124 142 131 123 141 151 151 150 149 143 151 156 163 166 163 159 159 163 159 160 160 155 155 156 158 157 152 156 160 156 147 335
144 212 267 264 275 289 294 312 218 183 75 127 137 165 197 229 219 91 130 131 133 147 159 151 146 151 150 158 161 166 169 163 163 165 168 168 166 163 160 162 166 175 169 166 169 179 176 196 284
122 250 266 259 281 291 316 340 351 318 103 158 188 158 211 202 188 145 133 133 144 164 169 160 161 158 152 154 164 165 167 167 169 171 173 169 170 169 169 173 177 183 181 177 187 197 227 253 282
186 234 256 238 275 284 294 307 314 199 114 98 125 144 163 174 178 167 162 166 172 179 185 173 166 156 155 159 161 165 165 166 172 174 172 174 176 180 179 184 188 191 188 189 197 215 238 271 284
238 249 268 275 274 276 281 294 328 327 255 169 163 146 163 175 180 172 176 177 184 182 182 180 165 165 165 164 165 168 167 171 177 181 180 184 186 194 196 193 191 193 196 195 202 218 229 241 258
249 262 255 267 268 269 264 260 295 157 262 19 182 161 170 190 188 184 180 186 184 187 184 180 170 171 173 162 170 173 175 178 184 191 190 187 192 197 203 199 198 198 194 202 209 218 227 236 242
254 276 277 281 292 288 263 248 260 280 269 302 179 163 172 189 190 191 192 191 183 181 182 183 177 175 174 169 175 177 185 185 192 193 198 194 198 201 199 202 197 204 198 211 217 225 230 237 237
278 278 285 284 278 286 279 281 220 263 281 285 143 183 180 191 196 200 201 195 186 181 187 180 178 179 175 176 176 182 186 193 192 197 204 201 202 201 197 203 205 205 205 217 221 225 228 235 223
285 310 311 285 282 269 293 284 265 268 273 266 266 185 199 204 183 185 187 194 192 188 181 179 181 179 180 178 181 184 193 188 191 201 205 204 205 201 200 202 206 213 218 219 224 228 228 239 240
313 297 277 266 314 272 201 264 270 267 264 256 251 252 155 159 151 136 148 181 187 179 177 173 180 184 182 182 183 187 189 191 206 199 202 205 203 203 199 203 212 216 216 232 225 218 219 231 229
240 254 247 293 232 269 222 262 267 259 253 258 251 244 153 147 126 117 112 117 160 171 167 177 179 181 175 163 151 147 147 163 205 206 202 209 209 203 202 209 218 219 226 227 224 217 202 215 214
231 232 239 246 275 238 264 259 265 264 247 246 240 213 170 155 142 132 120 115 134 143 157 168 163 159 149 144 139 131 126 127 110 107 179 212 211 208 204 217 225 231 239 237 223 220 213 215 217
232 233 238 262 262 280 276 272 264 266 239 235 244 208 168 158 151 132 127 122 123 125 144 153 151 151 145 148 148 146 151 158 150 137 137 145 180 188 207 232 227 228 239 244 224 224 227 238 237
231 243 253 273 277 273 274 270 274 292 242 222 223 170 163 149 148 136 129 129 134 139 143 137 141 153 155 159 147 146 152 167 156 168 198 212 224 222 218 231 235 230 239 251 244 223 236 249 211
231 233 244 244 275 282 275 272 263 276 257 212 210 175 170 165 156 144 131 125 127 133 134 135 140 148 155 148 126 106 99 88 91 108 175 219 223 231 229 238 239 240 236 248 256 244 239 254 253
234 222 235 253 255 261 228 272 259 259 259 235 224 167 177 166 151 144 137 131 129 127 120 117 122 139 154 145 137 148 127 116 69 48 187 49 247 243 249 257 262 267 262 256 247 243 238 229 255
232 215 225 247 259 267 260 272 260 234 240 244 233 189 178 173 166 159 148 138 135 132 126 116 108 106 114 121 121 108 111 106 89 65 77 37 11 341 288 274 272 276 282 290 302 302 279 248 271
214 224 229 239 248 257 246 242 253 233 228 232 233 209 177 175 170 154 144 139 135 132 128 122 114 112 113 113 116 117 118 116 106 81 65 48 56 56 45 38 35 38 23 6 355 342 324 303 288
205 208 225 235 226 246 205 230 238 234 221 220 225 215 178 176 166 158 156 148 139 132 131 127 124 123 121 116 117 123 124 118 109 98 94 77 48 35 40 66 64 54 48 41 35 25 355 341 322
203 193 201 210 226 252 238 242 238 230 234 237 233 228 171 169 166 162 158 149 144 140 136 136 134 134 132 129 126 120 115 118 120 125 117 87 80 104 110 91 75 59 42 32 21 13 4 3 343
210 211 216 243 213 251 231 254 245 229 236 227 231 165 163 165 163 160 157 153 149 147 145 143 138 138 143 146 144 143 144 149 150 147 131 110 118 132 117 103 87 65 51 37 22 12 357 353 349
216 189 195 226 228 239 241 245 225 204 216 223 231 184 168 162 158 158 160 155 151 149 147 143 135 140 147 148 150 152 167 175 173 171 182 110 126 130 122 105 95 79 57 27 14 6 358 354 348
211 222 221 212 213 227 250 255 204 219 212 213 193 170 166 161 157 157 156 157 155 152 152 147 141 143 148 152 158 163 181 187 186 193 154 134 130 130 123 114 105 93 78 54 16 354 345 347 332
216 216 210 210 216 229 237 252 24 208 216 182 167 164 167 157 154 155 158 153 154 154 153 152 149 155 159 149 138 141 124 115 97 119 114 122 116 100 106 86 77 69 63 51 33 4 5 346 335